Weather History for Macomb, IL

Change the Weather History Date:

Saturday, April 26, 2014

  Actual Average (KBRL) Record (KBRL)
Temperature  
Mean Temperature 63 °F 57 °F  
Max Temperature 81 °F 68 °F 92 °F (1986)
Min Temperature 45 °F 46 °F 31 °F (1950)
Degree Days  
Heating Degree Days 2 9  
Month to date heating degree days 326  
Since 1 July heating degree days 5432  
Cooling Degree Days 0 1  
Month to date cooling degree days 16  
Year to date cooling degree days 18  
Growing Degree Days 13 (Base 50)    
Moisture  
Dew Point 41 °F    
Average Humidity 49    
Maximum Humidity 84    
Minimum Humidity 19    
Precipitation  
Precipitation 0.00 in 0.14 in 0.77 in (1959)
Month to date precipitation 3.14  
Year to date precipitation 8.79  
Sea Level Pressure  
Sea Level Pressure 29.86 in    
Wind  
Wind Speed 7 mph (SE)    
Max Wind Speed 31 mph    
Max Gust Speed 36 mph    
Visibility 10 miles    
Events Rain , Thunderstorm    
T = Trace of Precipitation, MM = Missing Value Source: NWS Daily Summary

Daily Weather History Graph

Daily Weather History Graph

Search for Another Location

Airport:

Trip Planner

Search our weather history database for the weather conditions in past years. The results will help you decide how hot, cold, wet, or windy it might be!

Date:

Astronomy

Apr. 26, 2014 Rise Set
Actual Time 6:08 AM CDT 7:53 PM CDT
Civil Twilight 5:39 AM CDT 8:22 PM CDT
Nautical Twilight 5:03 AM CDT 8:57 PM CDT
Astronomical Twilight 4:25 AM CDT 9:35 PM CDT
Moon 4:33 AM CDT (4/26) 5:21 PM CDT (4/26)
Length of Visible Light 14h 43m
Length of Day
13h 45m
Waning Crescent, 8% of the Moon is Illuminated
Apr 26
Waning Crescent
Apr 29
New
May 6
First Quarter
May 14
Full
May 21
Last Quarter

Hourly Weather History & Observations

Time (CDT) Temp. Windchill Dew Point Humidity Pressure Visibility Wind Dir Wind Speed Gust Speed Precip Events Conditions
12:15 AM 57.4 °F - 41.2 °F 55% 29.86 in 10.0 mi SSW 5.8 mph - N/A   Clear
12:35 AM 55.4 °F - 41.2 °F 59% 29.86 in 10.0 mi SSW 5.8 mph - N/A   Clear
12:55 AM 55.9 °F - 41.4 °F 58% 29.86 in 10.0 mi South 4.6 mph - N/A   Clear
1:15 AM 54.7 °F - 41.2 °F 60% 29.86 in 10.0 mi SSW 4.6 mph - N/A   Clear
1:35 AM 54.9 °F - 41.2 °F 60% 29.86 in 10.0 mi SSW 3.5 mph - N/A   Clear
1:55 AM - - - N/A% 29.86 in - Calm Calm - N/A   Unknown
2:15 AM 52.3 °F - 41.0 °F 65% 29.85 in 10.0 mi Calm Calm - N/A   Clear
2:35 AM 46.9 °F - 41.0 °F 80% 29.85 in 10.0 mi NNE 8.1 mph - N/A   Clear
2:55 AM 46.8 °F - 41.4 °F 81% 29.85 in 10.0 mi NNE 3.5 mph - N/A   Clear
3:15 AM 45.9 °F - 41.0 °F 83% 29.85 in 10.0 mi Calm Calm - N/A   Clear
3:35 AM 46.4 °F - 41.4 °F 83% 29.85 in 10.0 mi Calm Calm - N/A   Clear
3:55 AM 46.9 °F - 41.2 °F 80% 29.85 in 10.0 mi Calm Calm - N/A   Clear
4:15 AM 45.7 °F - 41.0 °F 84% 29.86 in 10.0 mi Calm Calm - N/A   Clear
4:35 AM 45.7 °F 43.4 °F 40.1 °F 81% 29.86 in 10.0 mi SSE 4.6 mph - N/A   Clear
4:55 AM 45.1 °F 42.8 °F 39.7 °F 81% 29.86 in 10.0 mi South 4.6 mph - N/A   Clear
5:15 AM 46.4 °F 44.3 °F 41.0 °F 81% 29.87 in 10.0 mi South 4.6 mph - N/A   Clear
5:35 AM 45.5 °F 43.2 °F 39.9 °F 81% 29.87 in 10.0 mi SE 4.6 mph - N/A   Clear
5:55 AM 45.5 °F 41.8 °F 39.9 °F 81% 29.88 in 10.0 mi South 6.9 mph - N/A   Clear
6:15 AM 47.1 °F - 40.3 °F 77% 29.88 in 10.0 mi South 4.6 mph - N/A   Mostly Cloudy
6:35 AM 48.4 °F - 41.2 °F 76% 29.89 in 10.0 mi South 5.8 mph - N/A   Overcast
6:55 AM 49.3 °F - 41.9 °F 76% 29.89 in 10.0 mi South 4.6 mph - N/A   Scattered Clouds
7:15 AM 52.7 °F - 43.0 °F 70% 29.89 in 10.0 mi South 4.6 mph - N/A   Clear
7:35 AM 56.1 °F - 43.9 °F 64% 29.89 in 10.0 mi Calm Calm - N/A   Clear
7:55 AM 59.4 °F - 44.6 °F 58% 29.89 in 10.0 mi Calm Calm - N/A   Clear
8:15 AM 62.1 °F - 44.4 °F 52% 29.89 in 10.0 mi SSW 4.6 mph - N/A   Clear
8:35 AM 64.6 °F - 44.6 °F 48% 29.90 in 10.0 mi SW 3.5 mph - N/A   Scattered Clouds
8:55 AM 66.2 °F - 46.0 °F 48% 29.90 in 10.0 mi Calm Calm - N/A   Scattered Clouds
9:15 AM 68.0 °F - 46.0 °F 45% 29.90 in 10.0 mi Calm Calm - N/A   Clear
9:35 AM 69.3 °F - 46.0 °F 43% 29.89 in 10.0 mi Calm Calm - N/A   Clear
9:55 AM 69.8 °F - 46.0 °F 43% 29.89 in 10.0 mi NE 5.8 mph - N/A   Clear
10:15 AM 70.7 °F - 47.8 °F 44% 29.89 in 10.0 mi ENE 4.6 mph - N/A   Clear
10:35 AM 71.4 °F - 46.4 °F 41% 29.89 in 10.0 mi East 6.9 mph - N/A   Clear
10:55 AM 72.5 °F - 45.7 °F 38% 29.89 in 10.0 mi ENE 5.8 mph - N/A   Clear
11:15 AM 73.4 °F - 46.2 °F 38% 29.89 in 10.0 mi NE 9.2 mph - N/A   Clear
11:35 AM 73.6 °F - 44.8 °F 36% 29.90 in 10.0 mi Calm Calm - N/A   Clear
11:55 AM 75.0 °F - 42.8 °F 32% 29.90 in 10.0 mi SSE 6.9 mph - N/A   Clear
12:15 PM 75.6 °F - 40.8 °F 29% 29.89 in 10.0 mi SSE 3.5 mph - N/A   Clear
12:35 PM 77.0 °F - 39.6 °F 26% 29.89 in 10.0 mi SSW 9.2 mph - N/A   Clear
12:55 PM 77.9 °F - 39.9 °F 26% 29.88 in 10.0 mi South 5.8 mph - N/A   Clear
1:15 PM 78.8 °F - 39.9 °F 25% 29.88 in 10.0 mi WSW 3.5 mph - N/A   Clear
1:35 PM 78.6 °F - 39.4 °F 24% 29.87 in 10.0 mi SSE 4.6 mph - N/A   Clear
1:55 PM 77.7 °F - 39.6 °F 25% 29.86 in 10.0 mi SE 9.2 mph - N/A   Clear
2:15 PM 77.9 °F - 38.5 °F 24% 29.86 in 10.0 mi SE 6.9 mph - N/A   Clear
2:35 PM 79.2 °F - 37.6 °F 22% 29.85 in 10.0 mi SSE 9.2 mph - N/A   Clear
2:55 PM 81.5 °F - 36.0 °F 19% 29.84 in 10.0 mi South 6.9 mph 16.1 mph N/A   Clear
3:15 PM 80.4 °F - 36.3 °F 20% 29.83 in 10.0 mi South 4.6 mph - N/A   Clear
3:35 PM 81.5 °F - 37.0 °F 20% 29.82 in 10.0 mi South 5.8 mph - N/A   Clear
3:55 PM 80.2 °F - 37.4 °F 21% 29.82 in 10.0 mi SE 5.8 mph - N/A   Clear
4:15 PM 81.9 °F - 38.1 °F 21% 29.81 in 10.0 mi South 12.7 mph 16.1 mph N/A   Clear
4:35 PM 80.4 °F - 39.6 °F 23% 29.81 in 10.0 mi SE 12.7 mph - N/A   Clear
4:55 PM 81.0 °F - 38.3 °F 22% 29.80 in 10.0 mi South 12.7 mph - N/A   Clear
5:15 PM 81.3 °F - 38.8 °F 22% 29.80 in 10.0 mi SE 17.3 mph 20.7 mph N/A   Clear
5:35 PM 80.4 °F - 38.5 °F 22% 29.79 in 10.0 mi SE 16.1 mph 23.0 mph N/A   Clear
5:55 PM 79.7 °F - 39.0 °F 23% 29.78 in 10.0 mi SE 16.1 mph 20.7 mph N/A   Clear
6:15 PM 78.6 °F - 38.5 °F 24% 29.80 in 10.0 mi SE 13.8 mph - N/A   Clear
6:35 PM 78.1 °F - 39.2 °F 25% 29.81 in 10.0 mi SE 16.1 mph 21.9 mph N/A   Clear
6:55 PM 73.4 °F - 42.3 °F 33% 29.81 in 10.0 mi East 20.7 mph - N/A Thunderstorm Clear
7:15 PM 70.3 °F - 41.9 °F 36% 29.81 in 10.0 mi East 23.0 mph 27.6 mph N/A   Clear
7:35 PM 68.5 °F - 41.9 °F 38% 29.82 in 10.0 mi East 21.9 mph - N/A   Clear
7:55 PM 66.7 °F - 41.7 °F 40% 29.83 in 10.0 mi East 17.3 mph 27.6 mph N/A   Clear
8:15 PM 64.9 °F - 41.0 °F 42% 29.83 in 10.0 mi East 24.2 mph 28.8 mph N/A   Clear
8:35 PM 62.4 °F - 39.9 °F 44% 29.86 in 10.0 mi East 25.3 mph 28.8 mph N/A   Scattered Clouds
8:55 PM 59.0 °F - 42.8 °F 55% 29.79 in 10.0 mi East 31.1 mph 35.7 mph N/A Rain Light Rain
9:15 PM 56.1 °F - 41.4 °F 58% 29.84 in 10.0 mi East 17.3 mph 31.1 mph N/A   Scattered Clouds
9:35 PM 54.9 °F - 39.6 °F 56% 29.87 in 10.0 mi East 15.0 mph - N/A   Clear
9:55 PM 53.8 °F - 39.6 °F 59% 29.89 in 10.0 mi East 17.3 mph - N/A   Clear
10:15 PM 53.1 °F - 37.8 °F 56% 29.88 in 10.0 mi East 19.6 mph - N/A   Clear
10:35 PM 52.0 °F - 37.6 °F 58% 29.89 in 10.0 mi ENE 15.0 mph - N/A   Clear
10:55 PM 50.9 °F - 37.0 °F 59% 29.90 in 10.0 mi East 13.8 mph - N/A   Clear
11:15 PM 50.4 °F - 36.7 °F 59% 29.88 in 10.0 mi East 16.1 mph - N/A   Clear
11:35 PM 49.8 °F - 35.4 °F 58% 29.87 in 10.0 mi East 21.9 mph - N/A   Clear
11:55 PM 49.6 °F - 34.0 °F 55% 29.87 in 10.0 mi East 21.9 mph 27.6 mph N/A   Clear